This is the latest recevied weather packets stored in our database for station/object AB4KY. If no packets are shown the sender has not sent any weather packets the latest 10 day(s).
| Time | Temp. | Humidity | Pressure | Rain* | Wind** | Luminosity | Snow |
|---|---|---|---|---|---|---|---|
| 1777642398 | 10.56° C | 78% | 1011.5 hPa | 0 mm | - | 87 W/m² | - |
| 1777642094 | 10.56° C | 79% | 1011.5 hPa | 0 mm | - | 102 W/m² | - |
| 1777641789 | 10° C | 77% | 1011.5 hPa | 0 mm | - | 105 W/m² | - |
| 1777641484 | 10.56° C | 79% | 1011.5 hPa | 0 mm | - | 64 W/m² | - |
| 1777641180 | 10° C | 79% | 1011.6 hPa | 0 mm | - | 71 W/m² | - |
| 1777640876 | 10° C | 78% | 1011.5 hPa | 0 mm | - | 78 W/m² | - |
| 1777640573 | 10° C | 80% | 1011.4 hPa | 0 mm | - | 70 W/m² | - |
| 1777640269 | 9.44° C | 79% | 1011.4 hPa | 0 mm | - | 79 W/m² | - |
| 1777639966 | 9.44° C | 80% | 1011.3 hPa | 0 mm | - | 42 W/m² | - |
| 1777639663 | 9.44° C | 80% | 1011.4 hPa | 0 mm | - | 65 W/m² | - |
| 1777639361 | 8.89° C | 83% | 1011.3 hPa | 0 mm | - | 73 W/m² | - |
| 1777639056 | 9.44° C | 86% | 1011.7 hPa | 0 mm | - | 64 W/m² | - |
| 1777638753 | 8.89° C | 83% | 1011 hPa | 0 mm | - | 55 W/m² | - |
| 1777638449 | 8.89° C | 85% | 1010.9 hPa | 0 mm | - | 48 W/m² | - |
| 1777638146 | 8.89° C | 87% | 1010.9 hPa | 0 mm | - | 83 W/m² | - |
| 1777637841 | 8.89° C | 85% | 1010.8 hPa | 0 mm | - | 33 W/m² | - |
| 1777637538 | 8.33° C | 83% | 1010.6 hPa | 0 mm | - | 43 W/m² | - |
| 1777637236 | 8.33° C | 87% | 1010.8 hPa | 0 mm | - | 49 W/m² | - |
| 1777636933 | 7.78° C | 90% | 1010.8 hPa | 0 mm | - | 43 W/m² | - |
| 1777636628 | 7.22° C | 95% | 1010.6 hPa | 0 mm | - | 48 W/m² | - |
| 1777636325 | 7.22° C | 95% | 1010.6 hPa | 0 mm | - | 49 W/m² | - |
| 1777636024 | 6.67° C | 95% | 1010.8 hPa | 0 mm | - | 45 W/m² | - |
| 1777635721 | 6.67° C | 95% | 1010.9 hPa | 0 mm | - | 23 W/m² | - |
| 1777635417 | 6.67° C | 94% | 1010.6 hPa | 0 mm | - | 21 W/m² | - |
| 1777635115 | 6.67° C | 94% | 1010.6 hPa | 0 mm | - | 17 W/m² | - |
* Rain latest hour (hover to see other rain measurements)
** Current wind speed in m/s (hover to see current wind gust speed)